Погода в Адышево

Россия / Кировская область     58°20′36″N   49°28′54″E
темп.,
°C
ветер,
м/с
пор.,
м/с
влажн.,
%
обл.,
%
осадки,
мм/ч
давл.,
гПа
погр.,
м
9 марта, вт
вт900:00−14с239797 0.1 100242
03:00−15с249795 0.1 100490
06:00−18с249884 0.1 100681
09:00−15ссв249389 0.1 1009332
12:00−13с2389100 0.1 1010485
15:00−13с3589100 0.2 1011585
18:00−15ссв3895100 0.2 1013495
21:00−18ссв4994100 0.3 1014396
10 марта, ср
ср1000:00−23ссв4996100 0.0 1015317
03:00−26ссв4109687 0.0 1017265
06:00−28с3109643 0.0 1018261
09:00−25с479230 0.0 1020322
12:00−19с47860 0.0 1019518
15:00−16ссз488214 0.0 1019831
18:00−19сз3896100 0.0 1020192
21:00−22сз379895 0.0 1021178
11 марта, чт
чт1100:00−24зсз359927 0.0 102185
03:00−21зсз499757 0.1 1021332
06:00−19зсз4896100 0.1 1020322
09:00−14сз4993100 0.3 1021490
12:00−9сз5986100 0.3 1021724
15:00−7сз5107890 0.3 1021874
18:00−11зсз4128544 0.0 1023395
21:00−13зсз4138722 0.0 1024362
12 марта, пт
пт1200:00−15зсз410911 0.0 1025250
03:00−17з410910 0.0 1025239
06:00−16з4119267 0.0 1026285
09:00−13з5118683 0.0 1026421
12:00−9з6127799 0.0 1026665
15:00−8з5117985 0.0 1026707
18:00−11зюз4128914 0.0 1027440
21:00−12зюз413899 0.0 1028433
13 марта, сб
сб1300:00−14зюз411930 0.0 1029335
03:00−16зюз411920 0.0 1030280
06:00−17юз412890 0.0 1030267
09:00−13юз411820 0.0 1030359
12:00−7юз511780 0.0 1029575
15:00−7ююз511780 0.0 1027756
18:00−10ююз513860 0.0 1026585
21:00−11ююз515860 0.0 1026553